Weather reports worldwide

Advertisment
Bridgefoot, United Kingdom (99137): temperature & dewpoint: 21.05.2018 09:00:00 - 27.05.2018 09:00:00 (BST)Bridgefoot, United Kingdom (99137): precipitation: 21.05.2018 09:00:00 - 27.05.2018 09:00:00 (BST)
Date & Time tt [°C] td [°C] rr [mm]
27.05.2018 09:00:00 - - -
27.05.2018 08:00:00 17,5 11,5 0,0
27.05.2018 07:00:00 14,9 8,6 0,0
27.05.2018 06:00:00 12,7 8,1 0,0
27.05.2018 05:00:00 11,6 7,8 0,0
27.05.2018 04:00:00 10,5 8,5 0,0
27.05.2018 03:00:00 10,6 8,9 0,0
27.05.2018 02:00:00 10,6 9,2 0,0
27.05.2018 01:00:00 11,2 9,2 0,0
27.05.2018 00:00:00 11,9 9,5 0,0
26.05.2018 23:00:00 13,0 9,8 0,0
26.05.2018 22:00:00 14,8 9,5 0,0
26.05.2018 21:00:00 17,3 10,0 0,0
26.05.2018 20:00:00 19,2 10,0 0,0
26.05.2018 19:00:00 20,5 8,1 0,0
26.05.2018 18:00:00 20,8 9,7 0,0
26.05.2018 17:00:00 20,6 11,1 0,0
26.05.2018 16:00:00 21,3 10,4 0,0
26.05.2018 15:00:00 23,9 10,1 0,0
26.05.2018 14:00:00 23,6 9,1 0,0
26.05.2018 13:00:00 22,4 12,0 0,0
26.05.2018 12:00:00 20,1 11,3 0,0
26.05.2018 11:00:00 20,2 12,4 0,0
26.05.2018 10:00:00 19,3 9,8 0,0
26.05.2018 09:00:00 17,4 10,4 0,0
26.05.2018 08:00:00 14,1 11,1 0,0
26.05.2018 07:00:00 11,9 10,7 0,0
26.05.2018 06:00:00 11,1 10,4 0,0
26.05.2018 05:00:00 11,0 10,0 0,0
26.05.2018 04:00:00 11,7 10,6 0,0
26.05.2018 03:00:00 12,0 10,3 0,0
26.05.2018 02:00:00 12,8 10,6 0,0
26.05.2018 01:00:00 13,1 11,0 0,0
26.05.2018 00:00:00 12,9 11,2 0,0
25.05.2018 23:00:00 13,2 12,1 0,2
25.05.2018 22:00:00 13,4 12,5 0,2
25.05.2018 21:00:00 13,2 12,3 0,2
25.05.2018 20:00:00 13,3 12,1 0,8
25.05.2018 19:00:00 13,9 11,9 0,8
25.05.2018 18:00:00 15,1 11,8 0,2
25.05.2018 17:00:00 18,4 9,7 0,0
25.05.2018 16:00:00 20,5 8,8 0,0
25.05.2018 15:00:00 19,2 9,5 0,0
25.05.2018 14:00:00 19,5 11,6 0,0
25.05.2018 13:00:00 18,8 11,9 0,0
25.05.2018 12:00:00 17,7 11,0 0,0
25.05.2018 11:00:00 17,1 10,7 0,0
25.05.2018 10:00:00 16,7 9,9 0,0
25.05.2018 09:00:00 15,4 9,4 0,0
25.05.2018 08:00:00 12,8 8,6 0,0
25.05.2018 07:00:00 11,9 7,8 0,0
25.05.2018 06:00:00 10,8 7,4 0,0
25.05.2018 05:00:00 11,0 7,5 0,0
25.05.2018 04:00:00 9,9 7,4 0,0
25.05.2018 03:00:00 11,8 8,5 0,0
25.05.2018 02:00:00 8,9 7,5 0,0
25.05.2018 01:00:00 9,8 7,9 0,0
25.05.2018 00:00:00 11,7 7,8 0,0
24.05.2018 23:00:00 14,5 8,5 0,0
24.05.2018 22:00:00 16,5 8,9 0,0
24.05.2018 21:00:00 18,7 8,4 0,0
24.05.2018 20:00:00 20,2 9,3 0,0
24.05.2018 19:00:00 22,5 10,4 0,0
24.05.2018 18:00:00 23,1 7,3 0,0
24.05.2018 17:00:00 23,9 9,5 0,0
24.05.2018 16:00:00 24,2 9,4 0,0
24.05.2018 15:00:00 25,0 11,1 0,0
24.05.2018 14:00:00 22,5 11,5 0,0
24.05.2018 13:00:00 22,1 10,0 0,0
24.05.2018 12:00:00 21,1 11,2 0,0
24.05.2018 11:00:00 19,4 11,6 0,0
24.05.2018 10:00:00 17,5 12,1 0,0
24.05.2018 09:00:00 14,0 10,0 0,0
24.05.2018 08:00:00 12,0 9,9 0,0
24.05.2018 07:00:00 7,9 7,2 0,0
24.05.2018 06:00:00 5,8 5,6 0,0
24.05.2018 05:00:00 5,1 4,7 0,0
24.05.2018 04:00:00 5,6 5,2 0,0
24.05.2018 03:00:00 6,0 5,4 0,0
24.05.2018 02:00:00 7,2 6,7 0,0
24.05.2018 01:00:00 7,6 7,0 0,0
24.05.2018 00:00:00 8,4 7,3 0,0
23.05.2018 23:00:00 10,5 9,0 0,0
23.05.2018 22:00:00 12,7 10,1 0,0
23.05.2018 21:00:00 16,1 10,4 0,0
23.05.2018 20:00:00 18,4 10,5 0,0
23.05.2018 19:00:00 20,5 10,8 0,0
23.05.2018 18:00:00 20,4 11,1 0,0
23.05.2018 17:00:00 20,3 10,7 0,0
23.05.2018 16:00:00 20,6 10,6 0,0
23.05.2018 15:00:00 19,6 10,6 0,0
23.05.2018 14:00:00 19,0 11,3 0,0
23.05.2018 13:00:00 18,0 10,2 0,0
23.05.2018 12:00:00 16,7 9,8 0,0
23.05.2018 11:00:00 15,4 9,4 0,0
23.05.2018 10:00:00 14,4 8,8 0,0
23.05.2018 09:00:00 12,6 8,2 0,0
23.05.2018 08:00:00 10,7 7,4 0,0
23.05.2018 07:00:00 8,3 6,5 0,0
23.05.2018 06:00:00 6,1 5,3 0,0
23.05.2018 05:00:00 6,2 5,1 0,0
23.05.2018 04:00:00 6,9 5,6 0,0
23.05.2018 03:00:00 7,1 5,8 0,0
23.05.2018 02:00:00 7,5 6,1 0,0
23.05.2018 01:00:00 7,9 6,3 0,0
23.05.2018 00:00:00 8,4 6,4 0,0
22.05.2018 23:00:00 9,2 6,8 0,0
22.05.2018 22:00:00 10,2 7,4 0,0
22.05.2018 21:00:00 11,6 8,2 0,0
22.05.2018 20:00:00 13,4 8,8 0,0
22.05.2018 19:00:00 14,4 9,0 0,0
22.05.2018 18:00:00 15,6 9,2 0,0
22.05.2018 17:00:00 16,7 9,4 0,0
22.05.2018 16:00:00 17,4 9,5 0,0
22.05.2018 15:00:00 16,9 9,2 0,0
22.05.2018 14:00:00 16,0 8,7 0,0
22.05.2018 13:00:00 14,9 8,8 0,0
22.05.2018 12:00:00 14,1 8,2 0,0
22.05.2018 11:00:00 13,1 7,9 0,0
22.05.2018 10:00:00 12,2 7,7 0,0
22.05.2018 09:00:00 10,9 7,2 0,0
22.05.2018 08:00:00 9,8 7,3 0,0
22.05.2018 07:00:00 9,6 7,3 0,0
22.05.2018 06:00:00 9,3 7,4 0,0
22.05.2018 05:00:00 9,3 7,3 0,0
22.05.2018 04:00:00 9,6 8,0 0,0
22.05.2018 03:00:00 9,9 8,6 0,0
22.05.2018 02:00:00 9,6 8,7 0,0
22.05.2018 01:00:00 10,1 9,0 0,0
22.05.2018 00:00:00 9,9 9,2 0,0
21.05.2018 23:00:00 9,5 8,5 0,0
21.05.2018 22:00:00 10,4 8,9 0,0
21.05.2018 21:00:00 12,4 9,2 0,0
21.05.2018 20:00:00 14,6 10,2 0,0
21.05.2018 19:00:00 16,0 10,3 0,0
21.05.2018 18:00:00 16,2 8,9 0,0
21.05.2018 17:00:00 16,2 6,0 0,0
21.05.2018 16:00:00 16,7 7,8 0,0
21.05.2018 15:00:00 17,7 9,8 0,0
21.05.2018 14:00:00 17,7 10,3 0,0
21.05.2018 13:00:00 17,6 9,4 0,0
21.05.2018 12:00:00 17,0 8,0 0,0
21.05.2018 11:00:00 17,1 7,0 0,0
21.05.2018 10:00:00 17,0 7,8 0,0
21.05.2018 09:00:00 16,5 6,8 0,0

tt = temperature
td = dewpoint
rr = precipitation

Next stations